LA5NNA Weather Reports


time (UTC)temp
F
wind
direction
speed
knots
gust
knots
rain 1hr
in
rain 24hr
in
rain mn
in
humidity
%
barometer
mb
20260507135506 54 154 5.2 12.2 0.00 0.00 0.00 57 1016.7
20260507135007 54 170 7.0 11.3 0.00 0.00 0.00 56 1016.7
20260507134506 54 159 6.1 11.3 0.00 0.00 0.00 56 1016.7
20260507134006 54 158 7.0 11.3 0.00 0.00 0.00 56 1016.6
20260507133506 55 161 6.1 13.0 0.00 0.00 0.00 56 1016.7
20260507133011 55 173 6.1 13.9 0.00 0.00 0.00 56 1016.8
20260507132507 55 160 7.0 13.9 0.00 0.00 0.00 56 1016.8
20260507132006 55 171 6.1 11.3 0.00 0.00 0.00 56 1016.7
20260507131507 55 162 6.1 12.2 0.00 0.00 0.00 56 1016.7
20260507131007 55 171 6.1 11.3 0.00 0.00 0.00 56 1016.7
20260507130010 55 112 6.1 10.4 0.00 0.00 0.00 56 1016.7
20260507125506 55 128 4.3 13.0 0.00 0.00 0.00 56 1016.7
20260507125007 55 133 6.1 13.0 0.00 0.00 0.00 55 1016.7
20260507124507 55 170 6.1 12.2 0.00 0.00 0.00 55 1016.7
20260507124007 55 160 7.0 11.3 0.00 0.00 0.00 55 1016.8
20260507123506 55 101 4.3 10.4 0.00 0.00 0.00 56 1016.7
20260507123010 55 123 5.2 10.4 0.00 0.00 0.00 56 1016.7
20260507122007 55 146 6.1 10.4 0.00 0.00 0.00 56 1016.7
20260507121506 55 131 6.1 10.4 0.00 0.00 0.00 55 1016.7
20260507120506 55 106 6.1 10.4 0.00 0.00 0.00 56 1016.6
20260507120010 55 96 5.2 10.4 0.00 0.00 0.00 56 1016.5
20260507115507 54 99 5.2 10.4 0.00 0.00 0.00 55 1016.5
20260507115006 54 140 4.3 8.7 0.00 0.00 0.00 56 1016.6
20260507113506 54 139 4.3 12.2 0.00 0.00 0.00 55 1016.6
20260507113010 54 131 7.8 12.2 0.00 0.00 0.00 55 1016.6
20260507112506 54 124 6.1 10.4 0.00 0.00 0.00 55 1016.5
20260507112007 54 121 5.2 11.3 0.00 0.00 0.00 55 1016.5
20260507111507 54 150 8.7 12.2 0.00 0.00 0.00 55 1016.5
20260507111007 54 141 5.2 10.4 0.00 0.00 0.00 55 1016.4
20260507110507 54 156 6.1 11.3 0.00 0.00 0.00 55 1016.5
20260507110010 54 149 7.8 13.9 0.00 0.00 0.00 55 1016.5
20260507105507 53 116 6.1 13.0 0.00 0.00 0.00 55 1016.6
20260507104006 53 135 7.8 13.0 0.00 0.00 0.00 54 1016.3
20260507103506 53 141 6.1 13.0 0.00 0.00 0.00 55 1016.4
20260507103011 53 161 4.3 7.8 0.00 0.00 0.00 55 1016.3
20260507102506 53 138 7.0 13.0 0.00 0.00 0.00 55 1016.3
20260507102007 53 104 5.2 10.4 0.00 0.00 0.00 55 1016.3
20260507101507 53 100 2.6 8.7 0.00 0.00 0.00 54 1016.4
20260507101007 53 129 4.3 8.7 0.00 0.00 0.00 54 1016.4
20260507100506 52 143 5.2 8.7 0.00 0.00 0.00 54 1016.3
20260507100010 52 138 6.1 10.4 0.00 0.00 0.00 54 1016.3
20260507095507 52 137 3.5 8.7 0.00 0.00 0.00 54 1016.1
20260507095006 52 144 6.1 10.4 0.00 0.00 0.00 54 1016.2
20260507094506 52 154 5.2 11.3 0.00 0.00 0.00 54 1016.1
20260507094007 52 146 6.1 13.0 0.00 0.00 0.00 53 1016.1
20260507092506 52 110 6.1 10.4 0.00 0.00 0.00 52 1016.0
20260507091506 52 112 4.3 8.7 0.00 0.00 0.00 52 1016.0
20260507091007 51 147 4.3 10.4 0.00 0.00 0.00 51 1016.0
20260507090507 51 171 5.2 7.8 0.00 0.00 0.00 51 1015.9
20260507090010 51 156 6.1 10.4 0.00 0.00 0.00 52 1016.0
20260507085506 51 119 3.5 10.4 0.00 0.00 0.00 52 1015.9
20260507084006 50 77 5.2 7.8 0.00 0.00 0.00 52 1016.2
20260507083506 50 90 3.5 7.8 0.00 0.00 0.00 51 1016.1
20260507081006 49 122 3.5 7.0 0.00 0.00 0.00 51 1015.8
20260507080506 49 87 4.3 7.0 0.00 0.00 0.00 50 1015.9
20260507080010 49 83 4.3 7.8 0.00 0.00 0.00 50 1015.7
20260507075507 48 106 4.3 10.4 0.00 0.00 0.00 51 1015.7
20260507074509 47 95 3.5 7.8 0.00 0.00 0.00 53 1015.6
20260507074008 47 86 4.3 7.8 0.00 0.00 0.00 53 1015.7
20260507073012 46 110 3.5 8.7 0.00 0.00 0.00 54 1015.6
20260507072509 45 105 4.3 7.8 0.00 0.00 0.00 55 1015.6
20260507072009 45 118 4.3 7.0 0.00 0.00 0.00 56 1015.6
20260507071509 45 134 3.5 6.1 0.00 0.00 0.00 57 1015.4
20260507071009 44 158 2.6 5.2 0.00 0.00 0.00 58 1015.4
20260507070509 44 153 1.7 4.3 0.00 0.00 0.00 58 1015.4
20260507070013 44 76 2.6 5.2 0.00 0.00 0.00 58 1015.5
20260507065508 43 97 1.7 4.3 0.00 0.00 0.00 58 1015.5
20260507065009 43 98 1.7 5.2 0.00 0.00 0.00 58 1015.5
20260507064508 43 59 2.6 5.2 0.00 0.00 0.00 58 1015.5
20260507064009 42 68 3.5 7.0 0.00 0.00 0.00 58 1015.5
20260507063508 42 59 2.6 5.2 0.00 0.00 0.00 59 1015.4
20260507063012 42 47 2.6 6.1 0.00 0.00 0.00 60 1015.3
20260507062508 42 63 2.6 6.1 0.00 0.00 0.00 60 1015.3
20260507061508 42 58 2.6 7.0 0.00 0.00 0.00 60 1015.3
20260507061009 41 13 4.3 8.7 0.00 0.00 0.00 61 1015.2
20260507060508 41 15 2.6 7.0 0.00 0.00 0.00 61 1015.2
20260507060012 41 41 1.7 5.2 0.00 0.00 0.00 61 1015.2
20260507054508 40 52 1.7 4.3 0.00 0.00 0.00 61 1015.0
20260507053508 40 59 1.7 2.6 0.00 0.00 0.00 61 1015.2
20260507053012 40 96 0.9 1.7 0.00 0.00 0.00 61 1015.2
20260507052508 40 317 1.7 1.7 0.00 0.00 0.00 61 1015.2
20260507052008 40 5 0.9 1.7 0.00 0.00 0.00 61 1015.1
20260507050508 40 335 0.9 1.7 0.00 0.00 0.00 60 1015.0
20260507050012 40 322 0.9 1.7 0.00 0.00 0.00 60 1014.9
20260507045509 40 6 0.9 1.7 0.00 0.00 0.00 60 1014.8
20260507045008 40 351 1.7 1.7 0.00 0.00 0.00 60 1014.9
20260507044508 40 332 0.9 1.7 0.00 0.00 0.00 60 1014.8
20260507044008 40 67 0.0 0.9 0.00 0.00 0.00 60 1014.7
20260507043508 40 76 0.0 0.9 0.00 0.00 0.00 60 1014.8
20260507043012 40 69 0.9 0.9 0.00 0.00 0.00 60 1014.9
20260507042508 40 348 0.0 0.9 0.00 0.00 0.00 60 1014.7
20260507042008 40 323 0.0 0.9 0.00 0.00 0.00 60 1014.5
20260507041008 40 96 0.9 0.9 0.00 0.00 0.00 60 1014.5
20260507040508 40 104 0.0 0.9 0.00 0.00 0.00 60 1014.3
20260507035509 41 40 0.9 1.7 0.00 0.00 0.00 60 1014.5
20260507035008 41 60 0.9 0.9 0.00 0.00 0.00 60 1014.4
20260507034508 41 75 0.0 0.9 0.00 0.00 0.00 60 1014.3
20260507034008 41 272 0.0 0.9 0.00 0.00 0.00 59 1014.2
20260507033508 41 91 0.9 1.7 0.00 0.00 0.00 59 1014.1
20260507033012 41 22 0.9 1.7 0.00 0.00 0.00 59 1014.2
20260507032008 41 359 0.9 2.6 0.00 0.00 0.00 59 1013.9
20260507031508 41 59 0.9 2.6 0.00 0.00 0.00 59 1014.1
20260507031008 42 323 0.0 0.9 0.00 0.00 0.00 59 1014.0
20260507030508 42 106 0.9 0.9 0.00 0.00 0.00 59 1013.9
20260507030012 42 316 0.9 1.7 0.00 0.00 0.00 59 1013.9
20260507025507 42 14 1.7 2.6 0.00 0.00 0.00 59 1013.9
20260507025008 42 9 2.6 6.1 0.00 0.00 0.00 59 1013.8
20260507024508 42 355 2.6 6.1 0.00 0.00 0.00 59 1013.8
20260507024008 42 17 4.3 7.0 0.00 0.00 0.00 59 1013.8
20260507023508 42 5 1.7 5.2 0.00 0.00 0.00 59 1013.8
20260507023011 42 3 1.7 5.2 0.00 0.00 0.00 59 1013.7
20260507022508 42 350 1.7 5.2 0.00 0.00 0.00 59 1013.7
20260507022008 42 358 1.7 5.2 0.00 0.00 0.00 59 1013.8
20260507021508 42 0 2.6 5.2 0.00 0.00 0.00 59 1013.5
20260507021008 42 0 2.6 6.1 0.00 0.00 0.00 59 1013.6
20260507020508 42 26 2.6 7.0 0.00 0.00 0.00 59 1013.5
20260507020011 42 347 1.7 6.1 0.00 0.00 0.00 58 1013.5
20260507015508 42 358 1.7 6.1 0.00 0.00 0.00 58 1013.6
20260507015008 42 16 3.5 6.1 0.00 0.00 0.00 58 1013.6
20260507014508 42 9 2.6 5.2 0.00 0.00 0.00 58 1013.6
20260507013508 43 1 1.7 2.6 0.00 0.00 0.00 58 1013.5
20260507012507 43 6 0.9 4.3 0.00 0.00 0.00 58 1013.4
20260507012007 43 333 2.6 4.3 0.00 0.00 0.00 58 1013.5
20260507011508 43 330 0.9 4.3 0.00 0.00 0.00 58 1013.3
20260507011008 43 325 2.6 5.2 0.00 0.00 0.00 58 1013.3
20260507010507 43 319 2.6 4.3 0.00 0.00 0.00 58 1013.3
20260507010012 43 336 1.7 5.2 0.00 0.00 0.00 58 1013.3
20260507005508 43 339 2.6 5.2 0.00 0.00 0.00 58 1013.2
20260507004508 43 148 0.9 1.7 0.00 0.00 0.00 57 1013.2
20260507004008 44 22 1.7 6.1 0.00 0.00 0.00 57 1013.2
20260507003508 44 1 1.7 6.1 0.00 0.00 0.00 57 1013.2
20260507003012 44 322 1.7 6.1 0.00 0.00 0.00 57 1013.2
20260507002507 44 346 1.7 5.2 0.00 0.00 0.00 57 1013.2
20260507002008 44 349 1.7 5.2 0.00 0.00 0.00 57 1013.1
20260507001508 44 350 1.7 4.3 0.00 0.00 0.00 57 1013.1
20260507001007 44 9 1.7 4.3 0.00 0.00 0.00 57 1013.2
20260507000508 44 29 1.7 4.3 0.00 0.00 0.00 57 1013.2
20260507000011 44 2 2.6 4.3 0.00 0.00 0.00 57 1013.2
20260506235508 44 19 1.7 4.3 0.00 0.00 0.00 56 1013.0
20260506235008 44 60 1.7 4.3 0.00 0.00 0.00 56 1013.1
20260506234508 44 44 2.6 6.1 0.00 0.00 0.00 56 1013.1
20260506234008 44 36 1.7 4.3 0.00 0.00 0.00 56 1013.1
20260506233508 44 43 1.7 4.3 0.00 0.00 0.00 56 1013.2
20260506233011 44 20 2.6 7.0 0.00 0.00 0.00 56 1013.1
20260506232508 44 35 3.5 7.0 0.00 0.00 0.00 56 1013.1
20260506232008 44 26 5.2 7.8 0.00 0.00 0.00 56 1013.0
20260506231507 44 46 5.2 7.8 0.00 0.00 0.00 56 1013.0
20260506230507 44 63 3.5 8.7 0.00 0.00 0.00 55 1012.9
20260506230011 44 44 3.5 7.8 0.00 0.00 0.00 55 1012.9
20260506225508 44 64 6.1 10.4 0.00 0.00 0.00 55 1012.8
20260506225007 44 73 3.5 7.0 0.00 0.00 0.00 55 1012.7
20260506224507 45 63 2.6 7.0 0.00 0.00 0.00 55 1012.7
20260506224008 45 56 2.6 7.8 0.00 0.00 0.00 55 1012.6
20260506223508 45 48 5.2 8.7 0.00 0.00 0.00 55 1012.7
20260506223012 45 66 2.6 7.8 0.00 0.00 0.00 54 1012.7
20260506222507 45 43 3.5 7.8 0.00 0.00 0.00 55 1012.6
20260506222007 45 24 3.5 11.3 0.00 0.00 0.00 55 1012.7
20260506221007 45 71 2.6 6.1 0.00 0.00 0.00 55 1012.6
20260506220507 45 35 4.3 10.4 0.00 0.00 0.00 55 1012.6
20260506220011 45 48 4.3 7.8 0.00 0.00 0.00 55 1012.5
20260506215507 45 21 4.3 10.4 0.00 0.00 0.00 55 1012.5
20260506215007 46 51 1.7 11.3 0.00 0.00 0.00 55 1012.6
20260506214508 46 44 2.6 11.3 0.00 0.00 0.00 55 1012.5
20260506213508 46 24 3.5 10.4 0.00 0.00 0.00 55 1012.6
20260506213011 46 30 3.5 8.7 0.00 0.00 0.00 55 1012.4
20260506212507 46 25 2.6 7.8 0.00 0.00 0.00 55 1012.2
20260506212007 46 15 2.6 8.7 0.00 0.00 0.00 56 1012.5
20260506211008 46 328 1.7 6.1 0.00 0.00 0.00 56 1012.3
20260506210507 47 37 2.6 5.2 0.00 0.00 0.00 56 1012.3
20260506210011 47 44 2.6 6.1 0.00 0.00 0.00 55 1012.1
20260506205507 47 33 2.6 5.2 0.00 0.00 0.00 55 1012.2
20260506205007 47 28 2.6 6.1 0.00 0.00 0.00 55 1012.2
20260506204507 47 26 2.6 6.1 0.00 0.00 0.00 55 1012.3
20260506204008 47 27 2.6 7.0 0.00 0.00 0.00 54 1012.2
20260506203011 47 27 3.5 7.0 0.00 0.00 0.00 54 1012.1
20260506202507 47 29 4.3 10.4 0.00 0.00 0.00 54 1012.1
20260506202007 47 20 2.6 7.8 0.00 0.00 0.00 54 1012.0
20260506201507 47 5 4.3 12.2 0.00 0.00 0.00 55 1012.0
20260506200507 47 30 4.3 7.8 0.00 0.00 0.00 55 1012.1
20260506200011 47 33 2.6 8.7 0.00 0.00 0.00 55 1012.0
20260506195508 47 14 5.2 10.4 0.00 0.00 0.00 55 1012.0
20260506195007 47 27 2.6 7.0 0.00 0.00 0.00 56 1011.9
20260506194008 48 354 3.5 8.7 0.00 0.00 0.00 58 1011.7
20260506192507 47 323 0.9 6.1 0.00 0.00 0.00 58 1011.6
20260506192007 47 324 4.3 8.7 0.00 0.00 0.00 58 1011.5
20260506191507 48 311 6.1 10.4 0.00 0.00 0.00 58 1011.4
20260506191007 48 309 7.8 10.4 0.00 0.00 0.00 58 1011.5
20260506190507 48 308 7.0 11.3 0.00 0.00 0.00 58 1011.5
20260506190011 48 308 6.1 8.7 0.00 0.00 0.00 58 1011.4
20260506185507 48 306 7.0 11.3 0.00 0.00 0.00 57 1011.3
20260506185007 48 308 7.0 10.4 0.00 0.00 0.00 57 1011.4
20260506184507 48 302 7.0 12.2 0.00 0.00 0.00 56 1011.4
20260506184007 48 303 8.7 12.2 0.00 0.00 0.00 56 1011.3
20260506183011 48 308 8.7 13.0 0.00 0.00 0.00 56 1011.2
20260506182507 48 300 9.6 13.0 0.00 0.00 0.00 56 1011.1
20260506182007 49 301 8.7 13.0 0.00 0.00 0.00 56 1011.1
20260506181507 49 303 9.6 14.8 0.00 0.00 0.00 56 1011.1
20260506180011 49 301 10.4 14.8 0.00 0.00 0.00 57 1011.0
20260506175507 49 310 10.4 14.8 0.00 0.00 0.00 57 1011.0
20260506175007 49 307 10.4 15.6 0.00 0.00 0.00 57 1011.0
20260506174507 49 311 9.6 15.6 0.00 0.00 0.00 57 1011.0
20260506174007 49 304 12.2 18.2 0.00 0.00 0.00 57 1010.9
20260506173507 49 303 10.4 14.8 0.00 0.00 0.00 57 1011.0
20260506173011 49 305 11.3 18.2 0.00 0.00 0.00 58 1011.0
20260506172507 49 307 11.3 18.2 0.00 0.00 0.00 58 1010.9
20260506172007 49 298 12.2 18.2 0.00 0.00 0.00 58 1010.8
20260506171507 49 305 13.9 21.7 0.00 0.00 0.00 58 1010.8
20260506171007 49 304 13.0 21.7 0.00 0.00 0.00 59 1010.8
20260506170507 49 294 14.8 24.3 0.00 0.00 0.00 59 1010.7
20260506170011 49 299 13.9 22.6 0.00 0.00 0.00 59 1010.8
20260506165507 49 302 14.8 21.7 0.00 0.00 0.00 59 1010.8
20260506164007 49 296 16.5 24.3 0.00 0.00 0.00 59 1010.9
20260506163507 49 298 15.6 20.9 0.00 0.00 0.00 59 1011.0
20260506163011 49 300 15.6 21.7 0.00 0.00 0.00 59 1011.0
20260506162507 49 299 15.6 21.7 0.00 0.00 0.00 59 1011.0
20260506161507 49 304 17.4 24.3 0.00 0.00 0.00 59 1011.0
20260506161007 49 294 17.4 25.2 0.00 0.00 0.00 59 1011.0
20260506160507 49 307 14.8 26.9 0.00 0.00 0.00 59 1011.0
20260506160010 49 304 17.4 26.1 0.00 0.00 0.00 59 1011.1
20260506155507 49 298 17.4 22.6 0.00 0.00 0.00 60 1010.9
20260506155007 50 301 19.1 22.6 0.00 0.00 0.00 60 1011.1
20260506154007 50 299 15.6 22.6 0.00 0.00 0.00 60 1011.0
20260506153507 50 298 17.4 25.2 0.00 0.00 0.00 60 1011.1
20260506153011 50 300 15.6 24.3 0.00 0.00 0.00 59 1011.0
20260506152507 50 302 15.6 21.7 0.00 0.00 0.00 61 1011.0
20260506152007 50 293 16.5 21.7 0.00 0.00 0.00 60 1010.9
20260506151507 50 303 15.6 24.3 0.00 0.00 0.00 61 1011.1
20260506151006 50 299 17.4 22.6 0.00 0.00 0.00 61 1011.0
20260506150506 50 300 14.8 20.0 0.00 0.00 0.00 62 1011.1
20260506150010 50 290 14.8 20.9 0.00 0.00 0.00 62 1011.0
20260506145506 50 283 13.0 20.0 0.00 0.00 0.00 63 1011.1
20260506144507 50 284 12.2 21.7 0.00 0.00 0.00 63 1011.2
20260506144007 50 284 13.9 24.3 0.00 0.00 0.00 63 1011.2
20260506143506 50 282 12.2 20.0 0.00 0.00 0.00 62 1011.2
20260506143011 50 287 14.8 20.0 0.00 0.00 0.00 62 1011.3
20260506142507 50 289 14.8 20.9 0.00 0.00 0.00 62 1011.3
20260506142007 50 288 13.9 21.7 0.00 0.00 0.00 62 1011.4
20260506141506 51 280 13.9 22.6 0.00 0.00 0.00 62 1011.3
20260506141007 51 293 17.4 22.6 0.00 0.00 0.00 62 1011.3
20260506140507 51 291 15.6 21.7 0.00 0.00 0.00 63 1011.4
20260506140010 50 284 12.2 20.0 0.00 0.00 0.00 63 1011.5